Location: Moscow
(55.7500°N, 37.5830°E)
Time: 11:15:06
(UTC+03:00)

Vanguard 3 - Pass Details

Date: 01 December 2021
Orbit: 508 x 3260 km, 33.3° (Epoch: 19 January)

Event Time Altitude Azimuth Distance (km) Brightness Sun altitude
Rises 02:26:24 0° 180° (S) 7,151 - -48.6°
Exits shadow 02:32:14 - 166° (SSE) 6,543 11.5 -48.0°
Reaches altitude 10° 02:37:00 10° 153° (SSE) 6,163 11.5 -47.5°
Maximum altitude 02:41:49 11° 139° (SE) 5,927 11.5 -47.0°
Drops below altitude 10° 02:46:27 10° 124° (SE) 5,877 11.6 -46.4°
Sets 02:55:30 0° 97° (E) 6,344 12.2 -45.4°
